GW1476 Weather Reports


time (UTC)temp
F
wind
direction
speed
knots
gust
knots
rain 1hr
in
rain 24hr
in
rain mn
in
humidity
%
barometer
mb
20260509054513 47 338 0.0 0.0 0.00 0.00 0.00 99 1013.5
20260509053935 47 68 0.0 0.0 0.00 0.00 0.00 99 1013.5
20260509053347 47 225 0.0 0.0 0.00 0.00 0.00 99 1013.5
20260509052735 47 203 0.0 0.0 0.00 0.00 0.00 99 1013.5
20260509052136 47 225 0.0 0.0 0.00 0.00 0.00 99 1013.5
20260509051536 48 225 0.0 0.0 0.00 0.00 0.00 99 1013.5
20260509050939 48 203 0.0 0.0 0.00 0.00 0.00 99 1013.5
20260509045724 48 225 0.0 0.0 0.00 0.00 0.00 98 1013.5
20260509045135 49 225 0.0 0.0 0.00 0.00 0.00 99 1013.5
20260509044542 49 270 0.0 0.0 0.00 0.00 0.00 99 1013.5
20260509043947 49 315 0.0 0.0 0.00 0.00 0.00 98 1013.5
20260509043336 50 293 0.0 0.0 0.00 0.00 0.00 97 1013.5
20260509042740 50 248 0.0 0.0 0.00 0.00 0.00 97 1013.5
20260509042147 50 270 0.0 0.0 0.00 0.00 0.00 95 1013.5
20260509041539 50 248 0.0 0.0 0.00 0.00 0.00 94 1013.5
20260509040310 51 248 0.0 0.0 0.00 0.00 0.00 94 1013.8
20260509035750 51 203 0.0 0.0 0.00 0.00 0.00 93 1013.5
20260509035153 52 225 0.0 0.0 0.00 0.00 0.00 92 1013.8
20260509034542 52 225 0.0 0.0 0.00 0.00 0.00 91 1013.8
20260509033926 52 203 0.0 0.0 0.00 0.00 0.00 91 1013.8
20260509033318 52 203 0.0 0.0 0.00 0.00 0.00 89 1013.8
20260509031510 53 203 0.0 0.0 0.00 0.00 0.00 87 1013.8
20260509030315 54 180 0.0 0.0 0.00 0.00 0.00 85 1013.8
20260509025711 54 270 0.0 0.0 0.00 0.00 0.00 84 1013.8
20260509025140 55 203 0.0 1.7 0.00 0.00 0.00 84 1013.8
20260509024550 55 270 0.0 0.0 0.00 0.00 0.00 85 1013.8
20260509023918 55 203 0.9 0.9 0.00 0.00 0.00 85 1014.2
20260509023313 55 293 0.0 0.0 0.00 0.00 0.00 85 1014.2
20260509022717 55 203 0.0 1.7 0.00 0.00 0.00 85 1014.2
20260509021510 55 225 0.0 0.0 0.00 0.00 0.00 83 1014.2
20260509020909 55 225 0.0 0.0 0.00 0.00 0.00 80 1013.8
20260509020312 56 225 0.0 0.0 0.00 0.00 0.00 80 1013.8
20260509015739 56 225 0.0 0.0 0.00 0.00 0.00 80 1013.8
20260509015127 56 270 0.0 0.0 0.00 0.00 0.00 81 1013.8
20260509014516 56 225 0.0 0.0 0.00 0.00 0.00 81 1013.8
20260509013934 56 180 0.0 1.7 0.00 0.00 0.00 81 1013.8
20260509013344 56 203 0.9 1.7 0.00 0.00 0.00 80 1013.8
20260509012746 56 203 0.0 1.7 0.00 0.00 0.00 79 1013.5
20260509012113 57 180 0.0 0.0 0.00 0.00 0.00 78 1013.5
20260509010930 57 248 0.0 2.6 0.00 0.00 0.00 74 1013.5
20260509010308 57 180 0.9 1.7 0.00 0.00 0.00 74 1013.5
20260509005746 58 203 1.7 1.7 0.00 0.00 0.00 73 1013.5
20260509005138 59 203 0.0 0.0 0.00 0.00 0.00 70 1013.2
20260509004522 59 248 0.9 0.9 0.00 0.00 0.00 71 1013.5
20260509003315 60 203 0.0 0.0 0.00 0.00 0.00 68 1013.2
20260509002713 62 203 0.0 0.0 0.00 0.00 0.00 65 1013.5
20260509002119 62 225 1.7 1.7 0.00 0.00 0.00 63 1013.2
20260509001537 63 203 0.0 0.0 0.00 0.00 0.00 61 1013.5
20260509000941 64 225 0.9 1.7 0.00 0.00 0.00 57 1013.5
20260509000311 65 113 0.0 2.6 0.00 0.00 0.00 57 1013.5
20260508235713 66 225 0.0 1.7 0.00 0.00 0.00 57 1013.5
20260508235117 66 203 0.9 2.6 0.00 0.00 0.00 55 1013.5
20260508234534 67 270 1.7 1.7 0.00 0.00 0.00 51 1013.5
20260508233914 70 225 0.9 2.6 0.00 0.00 0.00 49 1013.5
20260508233309 73 180 3.5 3.5 0.00 0.00 0.00 43 1013.8
20260508232725 74 248 0.0 3.5 0.00 0.00 0.00 38 1013.8
20260508232135 75 225 3.5 3.5 0.00 0.00 0.00 38 1013.5
20260508231513 76 45 0.9 3.5 0.00 0.00 0.00 38 1013.5
20260508230947 76 0 3.5 3.5 0.00 0.00 0.00 38 1013.5
20260508230323 74 0 1.7 3.5 0.00 0.00 0.00 38 1013.5
20260508225749 73 0 0.0 1.7 0.00 0.00 0.00 40 1013.5
20260508225148 74 338 4.3 4.3 0.00 0.00 0.00 39 1013.5
20260508224518 74 315 2.6 2.6 0.00 0.00 0.00 38 1013.5
20260508223947 74 90 3.5 3.5 0.00 0.00 0.00 39 1013.5
20260508223318 74 315 1.7 3.5 0.00 0.00 0.00 40 1013.5
20260508222127 74 315 2.6 3.5 0.00 0.00 0.00 39 1013.5
20260508221541 74 248 2.6 2.6 0.00 0.00 0.00 41 1013.5
20260508220935 74 180 2.6 3.5 0.00 0.00 0.00 40 1013.5
20260508220310 74 68 1.7 3.5 0.00 0.00 0.00 39 1013.5
20260508215732 74 23 2.6 4.3 0.00 0.00 0.00 38 1013.5
20260508214546 75 0 6.1 6.1 0.00 0.00 0.00 38 1013.5
20260508213913 74 338 4.3 4.3 0.00 0.00 0.00 39 1013.5
20260508212116 75 0 6.1 6.1 0.00 0.00 0.00 40 1013.5
20260508211515 75 23 3.5 3.5 0.00 0.00 0.00 41 1013.5
20260508210918 75 23 5.2 6.1 0.00 0.00 0.00 40 1013.5
20260508210319 73 23 2.6 4.3 0.00 0.00 0.00 41 1013.8
20260508205739 74 0 4.3 4.3 0.00 0.00 0.00 41 1013.8
20260508205124 74 248 3.5 3.5 0.00 0.00 0.00 41 1013.8
20260508204551 75 203 1.7 2.6 0.00 0.00 0.00 40 1014.2
20260508203919 74 203 0.9 4.3 0.00 0.00 0.00 39 1014.2
20260508203320 74 203 3.5 3.5 0.00 0.00 0.00 40 1014.5
20260508202734 74 68 2.6 4.3 0.00 0.00 0.00 41 1014.5
20260508202114 75 225 2.6 4.3 0.00 0.00 0.00 38 1014.5
20260508201518 75 0 2.6 2.6 0.00 0.00 0.00 39 1014.9
20260508200949 74 203 1.7 6.1 0.00 0.00 0.00 39 1014.9
20260508200343 74 23 1.7 7.0 0.00 0.00 0.00 39 1014.9
20260508195740 74 90 3.5 3.5 0.00 0.00 0.00 38 1015.2
20260508195133 74 203 3.5 6.1 0.00 0.00 0.00 40 1015.2
20260508194552 75 0 6.1 6.1 0.00 0.00 0.00 38 1015.2
20260508193931 74 68 0.9 6.1 0.00 0.00 0.00 39 1015.5
20260508193322 74 113 3.5 3.5 0.00 0.00 0.00 41 1015.5
20260508192726 74 180 2.6 2.6 0.00 0.00 0.00 41 1015.5
20260508192146 75 315 1.7 4.3 0.00 0.00 0.00 38 1015.5
20260508191549 74 68 1.7 2.6 0.00 0.00 0.00 41 1015.5
20260508190935 75 68 2.6 3.5 0.00 0.00 0.00 40 1016.2
20260508190343 75 203 0.9 2.6 0.00 0.00 0.00 41 1016.2
20260508185114 75 315 0.9 3.5 0.00 0.00 0.00 38 1016.2
20260508184545 75 45 2.6 2.6 0.00 0.00 0.00 38 1016.2
20260508183943 76 23 7.0 7.0 0.00 0.00 0.00 37 1016.5
20260508183338 75 45 1.7 4.3 0.00 0.00 0.00 38 1016.5
20260508182736 74 248 2.6 2.6 0.00 0.00 0.00 42 1016.5
20260508181532 73 113 1.7 1.7 0.00 0.00 0.00 42 1016.9
20260508180921 72 158 0.9 7.0 0.00 0.00 0.00 43 1016.9
20260508180349 72 203 4.3 4.3 0.00 0.00 0.00 46 1017.2
20260508175740 71 45 2.6 5.2 0.00 0.00 0.00 44 1017.2
20260508175143 71 180 3.5 3.5 0.00 0.00 0.00 45 1017.2
20260508174511 70 23 4.3 4.3 0.00 0.00 0.00 43 1017.2
20260508173923 72 338 7.8 9.6 0.00 0.00 0.00 42 1017.2
20260508173320 71 23 5.2 5.2 0.00 0.00 0.00 45 1017.2
20260508172740 72 315 2.6 3.5 0.00 0.00 0.00 44 1017.2
20260508172148 71 315 1.7 3.5 0.00 0.00 0.00 43 1017.6
20260508170940 70 158 2.6 5.2 0.00 0.00 0.00 44 1017.6
20260508170314 72 248 3.5 6.1 0.00 0.00 0.00 44 1017.9
20260508165709 71 158 3.5 3.5 0.00 0.00 0.00 44 1017.9
20260508165120 71 113 2.6 3.5 0.00 0.00 0.00 46 1018.2
20260508164533 71 293 0.9 0.9 0.00 0.00 0.00 45 1018.2
20260508163331 71 0 3.5 4.3 0.00 0.00 0.00 44 1018.6
20260508162723 71 338 2.6 4.3 0.00 0.00 0.00 42 1018.6
20260508162130 70 203 0.9 3.5 0.00 0.00 0.00 45 1018.6
20260508161515 70 23 6.1 7.0 0.00 0.00 0.00 41 1018.6
20260508160931 69 0 2.6 4.3 0.00 0.00 0.00 43 1018.6
20260508160338 69 293 0.9 5.2 0.00 0.00 0.00 42 1018.6
20260508155110 69 45 2.6 4.3 0.00 0.00 0.00 43 1018.9
20260508154521 69 270 1.7 2.6 0.00 0.00 0.00 43 1018.9
20260508153937 69 45 1.7 3.5 0.00 0.00 0.00 45 1018.9
20260508153342 69 90 1.7 3.5 0.00 0.00 0.00 46 1018.9
20260508152746 67 0 1.7 3.5 0.00 0.00 0.00 48 1018.9
20260508151536 69 23 4.3 4.3 0.00 0.00 0.00 48 1018.9
20260508150945 68 23 1.7 1.7 0.00 0.00 0.00 50 1018.9
20260508145746 66 248 1.7 2.6 0.00 0.00 0.00 53 1018.9
20260508145148 66 23 0.9 2.6 0.00 0.00 0.00 52 1019.3
20260508143942 64 203 2.6 2.6 0.00 0.00 0.00 56 1019.3
20260508142727 64 180 2.6 3.5 0.00 0.00 0.00 58 1018.9
20260508142148 62 293 1.7 1.7 0.00 0.00 0.00 61 1019.3
20260508141518 63 225 2.6 2.6 0.00 0.00 0.00 61 1019.3
20260508140935 62 23 2.6 3.5 0.00 0.00 0.00 62 1019.3
20260508135748 61 270 1.7 1.7 0.00 0.00 0.00 65 1019.6
20260508135145 58 225 0.0 0.0 0.00 0.00 0.00 74 1019.6
20260508134522 57 45 0.0 0.0 0.00 0.00 0.00 74 1019.6
20260508133915 56 45 0.0 0.9 0.00 0.00 0.00 75 1019.6
20260508133312 57 90 0.0 1.7 0.00 0.00 0.00 76 1019.6
20260508132726 55 180 0.0 0.9 0.00 0.00 0.00 77 1019.6
20260508132122 53 135 0.0 0.0 0.00 0.00 0.00 80 1019.6
20260508130308 51 338 0.0 0.0 0.00 0.00 0.00 84 1019.6
20260508125126 50 270 0.0 0.9 0.00 0.00 0.00 90 1019.6
20260508123936 47 158 0.0 0.0 0.00 0.00 0.00 93 1019.9
20260508123350 47 203 0.0 1.7 0.00 0.00 0.00 94 1019.9
20260508122731 46 180 0.0 0.0 0.00 0.00 0.00 96 1019.9
20260508122120 45 203 0.0 0.0 0.00 0.00 0.00 98 1019.9
20260508121537 45 203 0.0 0.0 0.00 0.00 0.00 99 1019.9
20260508120920 44 203 0.0 1.7 0.00 0.00 0.00 99 1019.6
20260508115710 43 180 0.0 0.0 0.00 0.00 0.00 99 1019.9
20260508115148 42 180 0.0 0.0 0.00 0.00 0.00 99 1019.6
20260508114519 41 180 0.9 0.9 0.00 0.00 0.00 99 1019.6
20260508113930 40 225 0.0 0.9 0.00 0.00 0.00 99 1019.6
20260508113316 39 270 0.0 0.0 0.00 0.00 0.00 99 1019.6
20260508112719 38 338 0.0 0.0 0.00 0.00 0.00 99 1019.6
20260508112143 38 338 0.0 0.0 0.00 0.00 0.00 99 1019.6
20260508111542 38 315 0.0 0.0 0.00 0.00 0.00 99 1019.3
20260508110922 38 293 0.0 0.0 0.00 0.00 0.00 99 1019.3
20260508110326 38 293 0.0 0.0 0.00 0.00 0.00 99 1019.3
20260508105142 38 158 0.0 0.0 0.00 0.00 0.00 99 1018.9
20260508103936 38 338 0.0 0.0 0.00 0.00 0.00 99 1018.9
20260508103338 38 293 0.0 1.7 0.00 0.00 0.00 99 1019.3
20260508102715 38 270 0.0 0.0 0.00 0.00 0.00 99 1019.3
20260508102115 38 338 0.0 0.0 0.00 0.00 0.00 99 1018.9
20260508101512 38 270 0.0 0.0 0.00 0.00 0.00 99 1018.9
20260508100938 38 270 0.0 0.0 0.00 0.00 0.00 99 1018.9
20260508100331 38 0 0.0 0.9 0.00 0.00 0.00 99 1018.9
20260508095748 38 293 0.0 0.0 0.00 0.00 0.00 99 1018.9
20260508095130 38 293 0.0 0.0 0.00 0.00 0.00 99 1018.9
20260508094522 38 270 0.0 0.0 0.00 0.00 0.00 99 1018.9
20260508093943 38 0 0.0 0.9 0.00 0.00 0.00 99 1018.9
20260508092722 38 270 0.0 0.0 0.00 0.00 0.00 99 1018.9
20260508092142 38 270 0.0 0.0 0.00 0.00 0.00 99 1018.9
20260508091528 38 203 0.0 0.0 0.00 0.00 0.00 99 1018.9
20260508090932 38 270 0.0 0.9 0.00 0.00 0.00 99 1018.6
20260508085139 37 338 0.0 0.0 0.00 0.00 0.00 99 1018.6
20260508084547 37 270 0.0 0.0 0.00 0.00 0.00 99 1018.6
20260508083912 37 270 0.0 0.9 0.00 0.00 0.00 99 1018.6
20260508083313 37 270 0.0 0.0 0.00 0.00 0.00 99 1018.6
20260508082735 37 270 0.0 0.0 0.00 0.00 0.00 99 1018.6
20260508082150 37 338 0.0 0.0 0.00 0.00 0.00 99 1018.6
20260508081537 37 293 0.0 0.0 0.00 0.00 0.00 99 1018.6
20260508080328 37 248 0.0 0.0 0.00 0.00 0.00 99 1018.6
20260508075731 36 248 0.0 0.0 0.00 0.00 0.00 99 1018.6
20260508075120 37 270 0.0 0.0 0.00 0.00 0.00 99 1018.6
20260508074529 37 270 0.0 0.0 0.00 0.00 0.00 99 1018.6
20260508073327 37 293 0.0 0.0 0.00 0.00 0.00 99 1018.6
20260508072733 37 293 0.0 0.0 0.00 0.00 0.00 99 1018.6
20260508072115 38 270 0.0 0.0 0.00 0.00 0.00 99 1018.2
20260508071537 37 293 0.0 0.0 0.00 0.00 0.00 99 1018.6
20260508070950 38 225 0.0 0.0 0.00 0.00 0.00 99 1018.2
20260508070338 38 225 0.0 0.9 0.00 0.00 0.00 99 1018.2
20260508065738 38 225 0.0 0.0 0.00 0.00 0.00 99 1018.6
20260508065133 38 248 0.0 0.0 0.00 0.00 0.00 99 1018.2
20260508064520 39 203 0.0 0.0 0.00 0.00 0.00 99 1018.6
20260508063925 38 270 0.0 0.0 0.00 0.00 0.00 99 1018.6
20260508063318 38 270 0.0 0.0 0.00 0.00 0.00 99 1018.6
20260508062742 38 270 0.0 0.0 0.00 0.00 0.00 99 1018.6
20260508062146 38 270 0.0 0.0 0.00 0.00 0.00 99 1018.6
20260508061530 39 225 0.0 0.0 0.00 0.00 0.00 99 1018.6
20260508060909 40 248 0.0 0.0 0.00 0.00 0.00 99 1018.6
20260508060341 39 248 0.0 0.0 0.00 0.00 0.00 99 1018.6